Alpha, California Weather observations

Data are for observation ending at time listed.
 Day   Time    Ave.   Ave.  Ave.  Vector   Max.   Stn.    Total    Solar   Ave.   Snow 
  of    of     Air    Rel.  Wind   Wind    Wind   Baro.  Precip.   Rad.    Soil   Depth
Year   Day     Temp.  Hum.  Speed  Dir.    Gust   Pres.                    Temp.       
2026   (PST)    F      %     mph   deg.    mph     mb.     in.     W/m2     F      in. 
---------------------------------------------------------------------------------------  
 125   19:50   40.8    93    2.2   351      3.9   784.3    0.00       0    999.0  999.0
 125   20:00   41.6    93    2.5   349      3.7   784.4    0.00       0    999.0  999.0
 125   20:10   42.5    85    2.4   343      3.7   784.4    0.00       0    999.0  999.0
 125   20:20   42.7    78    2.0   344      3.3   784.4    0.00       0    999.0  999.0
 125   20:30   42.6    75    0.8   341      2.2   784.5    0.00       0    999.0  999.0
 125   20:40   42.2    75    1.0   343      1.8   784.6    0.00       0    999.0  999.0
 125   20:50   42.2    74    2.0   352      4.4   784.6    0.00       0    999.0  999.0
 125   21:00   42.4    73    1.6   350      2.7   784.7    0.00       0    999.0  999.0
 125   21:10   42.3    73    1.3   355      3.4   784.8    0.00       0    999.0  999.0
 125   21:20   42.6    71    1.9   353      3.1   784.8    0.00       0    999.0  999.0
 125   21:30   42.6    71    1.4   358      3.0   784.9    0.00       0    999.0  999.0
 125   21:40   42.5    71    2.0   357      3.9   785.0    0.00       0    999.0  999.0
 125   21:50   43.3    66    3.3     6      5.5   785.0    0.00       0    999.0  999.0
 125   22:00   44.3    63    2.1   360      5.2   785.1    0.00       0    999.0  999.0
 125   22:10   44.9    61    1.4   349      2.7   785.1    0.00       0    999.0  999.0
 125   22:20   45.3    60    1.6   359      2.8   785.1    0.00       0    999.0  999.0
 125   22:30   44.0    67    1.3    58      2.5   785.2    0.00       0    999.0  999.0
 125   22:40   42.9    75    2.0   134      4.2   785.3    0.00       0    999.0  999.0
 125   22:50   43.0    74    2.1   142      3.9   785.4    0.00       0    999.0  999.0
 125   23:00   42.9    75    2.1   136      3.8   785.5    0.00       0    999.0  999.0
 125   23:10   42.8    74    1.7   110      3.5   785.7    0.00       0    999.0  999.0
 125   23:20   44.4    65    1.9   109      3.7   785.7    0.00       0    999.0  999.0
 125   23:30   45.5    62    2.4   121      4.2   785.8    0.00       0    999.0  999.0
 125   23:40   45.3    63    0.9    26      2.1   785.8    0.00       0    999.0  999.0
 125   23:50   45.0    62    0.7    93      2.0   785.8    0.00       0    999.0  999.0
 126    0:00   45.7    62    1.4   126      3.5   785.9    0.00       0    999.0  999.0
 126    0:10   44.7    65    1.3   346      3.3   785.9    0.00       0    999.0  999.0
 126    0:20   44.9    65    0.9    52      4.2   786.0    0.00       0    999.0  999.0
 126    0:30   44.7    67    2.1   214      4.7   786.0    0.00       0    999.0  999.0
 126    0:40   44.9    66    3.4   206      5.0   786.0    0.00       0    999.0  999.0
 126    0:50   45.5    64    2.2   218      3.7   786.1    0.00       0    999.0  999.0
 126    1:00   45.8    62    1.8   210      3.5   786.0    0.00       0    999.0  999.0
 126    1:10   45.7    62    1.6   169      3.3   786.0    0.00       0    999.0  999.0
 126    1:20   45.9    62    1.8   168      3.0   786.0    0.00       0    999.0  999.0
 126    1:30   46.0    61    1.0   191      2.8   786.1    0.00       0    999.0  999.0
 126    1:40   46.2    60    0.6   193      2.9   786.1    0.00       0    999.0  999.0
 126    1:50   45.9    60    0.0    91      0.3   786.1    0.00       0    999.0  999.0
 126    2:00   45.9    59    0.7   318      1.9   786.2    0.00       0    999.0  999.0
 126    2:10   45.6    60    0.1   311      0.7   786.2    0.00       0    999.0  999.0
 126    2:20   45.4    61    0.6   173      1.4   786.2    0.00       0    999.0  999.0
 126    2:30   45.8    62    2.1   150      3.5   786.3    0.00       0    999.0  999.0
 126    2:40   45.8    62    2.6   131      4.6   786.4    0.00       0    999.0  999.0
 126    2:50   45.8    61    2.8   138      4.5   786.5    0.00       0    999.0  999.0
 126    3:00   45.7    59    3.1   130      6.1   786.6    0.00       0    999.0  999.0
 126    3:10   45.4    61    3.3   123      5.6   786.6    0.00       0    999.0  999.0
 126    3:20   45.4    60    2.3   113      3.4   786.6    0.00       0    999.0  999.0
 126    3:30   46.0    56    1.3    92      3.8   786.7    0.00       0    999.0  999.0
 126    3:40   46.4    54    1.3   300      2.6   786.8    0.00       0    999.0  999.0
 126    3:50   46.8    53    1.8   297      3.8   786.9    0.00       0    999.0  999.0
 126    4:00   46.8    51    1.3   334      4.2   786.9    0.00       0    999.0  999.0
 126    4:10   47.1    48    2.4     6      4.7   787.0    0.00       0    999.0  999.0
 126    4:20   48.2    39    2.7    41      5.1   787.1    0.00       0    999.0  999.0
 126    4:30   49.0    36    4.1    29      6.4   787.1    0.00       0    999.0  999.0
 126    4:40   49.8    34    4.9    28      9.1   787.1    0.00       0    999.0  999.0
 126    4:50   49.9    34    4.7    32      7.2   787.2    0.00       0    999.0  999.0
 126    5:00   49.6    34    3.7    29      5.2   787.3    0.00       1    999.0  999.0
 126    5:10   49.5    35    3.2    32      5.5   787.5    0.00       3    999.0  999.0
 126    5:20   49.5    35    3.3    32      5.6   787.6    0.00       7    999.0  999.0
 126    5:30   49.9    35    3.3    28      7.1   787.7    0.00      14    999.0  999.0
 126    5:40   50.4    34    3.1    28      4.8   787.8    0.00      11    999.0  999.0
 126    5:50   50.3    35    3.9    39      6.4   788.0    0.00      11    999.0  999.0
 126    6:00   50.6    36    3.6    30      6.2   788.0    0.00      20    999.0  999.0
 126    6:10   50.6    37    3.3    36      5.4   788.2    0.00      19    999.0  999.0
 126    6:20   51.0    37    3.2    42      5.8   788.3    0.00      21    999.0  999.0
 126    6:30   51.4    37    2.5    42      6.6   788.4    0.00      44    999.0  999.0
 126    6:40   51.3    39    1.6    92      5.8   788.5    0.00      45    999.0  999.0
 126    6:50   51.3    42    2.0   172      4.3   788.6    0.00     116    999.0  999.0
 126    7:00   51.6    41    1.7   243      4.7   788.7    0.00     160    999.0  999.0
 126    7:10   52.6    38    1.7   226      5.0   788.8    0.00     179    999.0  999.0
 126    7:20   53.5    37    0.8   320      3.8   788.9    0.00     198    999.0  999.0
 126    7:30   53.1    38    2.0   318      4.6   788.9    0.00     217    999.0  999.0
 126    7:40   53.2    42    2.2   144      4.8   789.0    0.00     234    999.0  999.0
 126    7:50   53.5    44    1.0   140      3.6   789.1    0.00     251    999.0  999.0
 126    8:00   54.4    45    1.1   133      3.8   789.2    0.00     268    999.0  999.0
 126    8:10   54.2    45    1.8   132      5.0   789.2    0.00     286    999.0  999.0
 126    8:20   52.6    52    3.2   127      5.5   789.3    0.00     304    999.0  999.0
 126    8:30   52.7    50    1.9   169      4.5   789.4    0.00     320    999.0  999.0
 126    8:40   53.3    50    3.3   119      6.4   789.4    0.00     336    999.0  999.0
 126    8:50   53.0    48    2.4    70      5.8   789.5    0.00     352    999.0  999.0
 126    9:00   53.7    47    2.2   112      6.6   789.5    0.00     368    999.0  999.0
 126    9:10   53.8    44    3.0    33      6.9   789.5    0.00     383    999.0  999.0
 126    9:20   54.0    38    3.8    39      7.0   789.6    0.00     397    999.0  999.0
 126    9:30   54.1    37    4.4    21     12.1   789.7    0.00     410    999.0  999.0
 126    9:40   54.1    35    4.8    20      9.9   789.8    0.00     423    999.0  999.0
 126    9:50   54.5    36    5.5    36     12.1   789.9    0.00     437    999.0  999.0
 126   10:00   54.6    35    5.3    23     11.0   789.9    0.00     447    999.0  999.0
 126   10:10   54.9    34    5.5    16     10.4   789.9    0.00     459    999.0  999.0
 126   10:20   55.5    33    4.9    28      9.6   789.9    0.00     471    999.0  999.0
 126   10:30   55.4    31    5.5    41     10.2   790.0    0.00     481    999.0  999.0
 126   10:40   55.9    31    5.0    31      8.2   790.0    0.00     489    999.0  999.0
 126   10:50   55.7    29    6.0    37     13.3   790.0    0.00     496    999.0  999.0
 126   11:00   55.3    28    5.9    10     12.9   790.0    0.00     503    999.0  999.0
 126   11:10   56.6    28    3.2    11      7.3   790.0    0.00     507    999.0  999.0
 126   11:20   57.1    26    3.7    23      9.7   790.0    0.00     513    999.0  999.0
 126   11:30   56.6    26    4.7    20     14.7   790.0    0.00     516    999.0  999.0
 126   11:40   57.0    26    3.6    21     10.4   790.0    0.00     517    999.0  999.0
 126   11:50   57.1    26    3.8    59     10.1   790.0    0.00     517    999.0  999.0
 126   12:00   57.6    26    4.3    58     10.2   790.0    0.00     517    999.0  999.0
 126   12:10   57.8    26    4.6    54      9.8   790.1    0.00     516    999.0  999.0
 126   12:20   57.5    25    4.0    26      8.5   790.1    0.00     516    999.0  999.0
 126   12:30   57.9    24    2.8     7      7.7   790.1    0.00     513    999.0  999.0
 126   12:40   58.2    26    3.9    54     10.5   790.1    0.00     508    999.0  999.0
 126   12:50   58.3    27    3.7    59      8.7   790.1    0.00     503    999.0  999.0
 126   13:00   59.1    26    3.8    72      6.8   790.2    0.00     498    999.0  999.0
 126   13:10   58.6    26    3.3    28     11.5   790.2    0.00     491    999.0  999.0
 126   13:20   58.7    27    3.5    44      8.7   790.2    0.00     484    999.0  999.0
 126   13:30   58.4    26    4.5    53      8.8   790.2    0.00     476    999.0  999.0
 126   13:40   58.2    25    3.5    19      7.2   790.1    0.00     467    999.0  999.0
 126   13:50   58.6    23    3.4   359     11.1   790.1    0.00     459    999.0  999.0
 126   14:00   59.5    22    2.2    21      5.5   790.0    0.00     450    999.0  999.0
 126   14:10   59.0    21    4.5    27      8.3   790.0    0.00     439    999.0  999.0
 126   14:20   59.0    23    4.4    33      8.6   789.9    0.00     426    999.0  999.0
 126   14:30   59.5    23    3.2    30      7.8   789.8    0.00     413    999.0  999.0
 126   14:40   59.8    23    4.1    47     11.0   789.8    0.00     401    999.0  999.0
 126   14:50   59.7    23    3.4    59      6.8   789.8    0.00     389    999.0  999.0
 126   15:00   60.5    22    4.2    70      9.2   789.7    0.00     350    999.0  999.0
 126   15:10   60.2    28    3.3    70      7.1   789.6    0.00     229    999.0  999.0
 126   15:20   58.9    51    1.8   309      6.6   789.6    0.00     165    999.0  999.0
 126   15:30   57.9    54    1.7   281      3.8   789.5    0.00     187    999.0  999.0
 126   15:40   57.6    61    1.8   220      5.6   789.6    0.00     110    999.0  999.0
 126   15:50   57.0    61    1.9   235      5.0   789.6    0.00     222    999.0  999.0
 126   16:00   59.3    51    2.1   295      6.1   789.5    0.00     113    999.0  999.0
 126   16:10   60.2    46    2.1   324      8.0   789.6    0.00      48    999.0  999.0
 126   16:20   59.5    41    2.4   329      7.4   789.6    0.00     136    999.0  999.0
 126   16:30   58.6    47    3.3   335      8.5   789.6    0.00     214    999.0  999.0
 126   16:40   57.7    51    3.5   336      7.5   789.6    0.00     195    999.0  999.0
 126   16:50   57.7    53    3.6   325      8.0   789.7    0.00     176    999.0  999.0
 126   17:00   58.1    53    3.6   322     10.2   789.6    0.00     157    999.0  999.0
 126   17:10   57.1    55    4.7   327      9.0   789.7    0.00     137    999.0  999.0
 126   17:20   56.4    57    4.1   328      9.1   789.7    0.00      44    999.0  999.0
 126   17:30   56.0    57    4.5   332     11.2   789.7    0.00      81    999.0  999.0
 126   17:40   55.3    58    4.8   332     10.2   789.7    0.00      87    999.0  999.0
 126   17:50   55.1    58    4.2   336      9.9   789.7    0.00      72    999.0  999.0
 126   18:00   55.0    59    3.6   341      7.4   789.7    0.00      57    999.0  999.0
 126   18:10   55.1    58    3.5   341      7.6   789.7    0.00      43    999.0  999.0
 126   18:20   54.4    61    3.4   339      6.4   789.7    0.00      28    999.0  999.0
 126   18:30   52.9    64    3.9   337      8.0   789.8    0.00      10    999.0  999.0
 126   18:40   52.2    66    3.2   347      4.8   789.9    0.00       8    999.0  999.0
 126   18:50   51.6    68    2.8   348      5.8   789.9    0.00       5    999.0  999.0
 126   19:00   51.1    70    2.8   348      4.4   790.0    0.00       2    999.0  999.0
 126   19:10   50.4    72    2.6   354      4.4   790.1    0.00       1    999.0  999.0
 126   19:20   50.1    74    2.8   356      4.5   790.1    0.00       0    999.0  999.0
 126   19:30   49.9    76    2.1   358      3.9   790.2    0.00       0    999.0  999.0
 126   19:40   50.6    74    3.1    14      5.5   790.3    0.00       0    999.0  999.0

Return to Alpha graphs page.


Western Regional Climate Center,wrcc@dri.edu